[[{"header":{"parameterUnit":"m.s-1","parameterCategory":1,"la1":30.2991,"la2":30.254,"lo1":-89.0895,"lo2":-89.0444,"dy":0.0017,"dx":0.0017,"nx":28,"ny":28,"refTime":"2023-08-14T21:00:00:Z","depth":0,"parameterNumber":2,"parameterNumberName":"U-component_of_WINDS"},"data":[0,0,0,0,0,0,0,0,0,0,0,0,0,0,0,0,0,0,0,0,0,0,0,0,0,0,0,0,0,0,0,0,0,0,0,0,0,0,0,0,0,0,0,0,0,0,0,0,0,0,0,0,0,0,0,0,0,0,-1.7313,-1.7314,0,-1.7468,-1.747,-1.7472,-1.7439,-1.7436,-1.7433,-1.7431,-1.7592,-1.7599,-1.7606,0,0,0,0,0,0,0,0,0,0,0,0,0,-1.699,-1.6996,-1.7313,-1.7315,-1.7317,-1.7468,-1.747,-1.7472,-1.744,-1.7436,-1.7433,-1.7429,-1.759,-1.7598,-1.7607,0,0,0,0,0,0,0,0,0,0,0,0,0,-1.7136,-1.6998,-1.7312,-1.7319,-1.7321,-1.7468,-1.747,-1.7473,-1.744,-1.7436,-1.7432,-1.7428,-1.7587,-1.7598,-1.7608,-1.7759,0,0,-1.764,-1.7645,0,0,0,0,0,0,0,0,-1.7128,-1.7148,-1.7316,-1.7318,-1.7321,-1.743,-1.7416,-1.7569,-1.7442,-1.7395,-1.7431,-1.7426,-1.7542,-1.7556,-1.7595,-1.7767,-1.7774,-1.7641,-1.7647,-1.7652,-1.7655,0,0,0,0,0,0,0,-1.7118,-1.7141,-1.7374,-1.7318,-1.7321,-1.7314,-1.733,-1.7445,-1.7491,-1.7399,-1.7397,-1.7415,-1.7543,-1.7585,-1.7598,-1.7776,-1.7641,-1.765,-1.7656,-1.7661,-1.8082,-1.8086,0,0,0,0,0,0,-1.7105,-1.7133,-1.7369,-1.7379,-1.7212,-1.7324,-1.7342,-1.7399,-1.749,-1.7499,-1.7419,-1.7413,-1.7569,-1.7586,-1.7604,-1.7789,-1.7652,-1.7662,-1.7668,-1.8077,-1.8083,-1.8088,0,0,0,0,0,0,-1.7098,-1.7127,-1.7363,-1.7256,-1.7285,-1.7334,-1.7399,-1.7405,-1.7447,-1.7505,-1.7513,-1.7453,-1.7566,-1.7589,-1.7721,-1.7794,-1.7666,-1.7676,-1.8071,-1.8079,-1.8085,-1.8158,0,0,0,0,0,0,-1.7089,-1.7124,-1.7182,-1.7257,-1.7291,-1.7477,-1.7403,-1.7411,-1.7465,-1.7459,-1.7539,-1.7549,-1.7565,-1.7706,-1.7731,-1.7806,-1.7684,-1.8065,-1.8075,-1.8083,-1.8149,-1.8167,-1.8182,0,0,0,0,0,-1.7078,-1.7196,-1.7185,-1.7213,-1.7364,-1.7481,-1.7501,-1.7516,-1.747,-1.7529,-1.7567,-1.7546,-1.7781,-1.7719,-1.7748,-1.7827,-1.806,-1.8072,-1.8082,-1.8142,-1.8163,-1.8181,0,0,0,0,0,0,-1.7129,-1.7206,-1.7194,-1.734,-1.7405,-1.7476,-1.755,-1.7538,-1.7617,-1.7608,-1.7625,-1.7643,-1.7778,-1.7815,-1.7745,-1.7979,-1.7914,-1.7932,-1.795,-1.7971,-1.7986,-1.7976,-1.7693,0,0,0,0,0,-1.7156,-1.7245,-1.7308,-1.7431,-1.7463,-1.7501,-1.7553,-1.7559,-1.7627,-1.7654,-1.7701,-1.7768,-1.7857,-1.7915,-1.8,-1.8154,-1.8172,-1.8222,-1.8238,-1.8251,-1.8267,-1.8353,-1.8376,-1.8124,-1.8124,-1.8124,0,0,-1.7216,-1.7269,-1.7324,-1.7442,-1.7493,-1.7585,-1.7524,-1.7624,-1.7693,-1.7669,-1.7797,-1.7834,-1.791,-1.8054,-1.8119,-1.8089,-1.834,-1.8265,-1.8275,-1.8284,-1.8366,-1.839,-1.8411,-1.8132,-1.813,-1.8129,0,0,-1.7371,-1.7419,-1.7528,-1.758,-1.7656,-1.7681,-1.7707,-1.778,-1.7804,-1.7932,-1.7916,-1.7999,-1.8151,-1.8206,-1.8254,-1.8431,-1.8416,-1.8458,-1.8544,-1.8627,-1.8647,-1.8665,-1.873,-1.8753,-1.8473,-1.8473,-1.8473,0,-1.7435,-1.7573,-1.7585,-1.7687,-1.7741,-1.7722,-1.7833,-1.7882,-1.7984,-1.8021,-1.7985,-1.8177,-1.8226,-1.8384,-1.8427,-1.8466,-1.8497,-1.845,-1.8643,-1.8661,-1.8678,-1.874,-1.8764,-1.8478,-1.8477,-1.8477,-1.8476,0,-1.7649,-1.7745,-1.7823,-1.7921,-1.7983,-1.8089,-1.8118,-1.8179,-1.818,-1.8208,-1.834,-1.8399,-1.8496,-1.8533,-1.8535,-1.8692,-1.8671,-1.8639,-1.8575,-1.8706,-1.8765,-1.8789,-1.8485,-1.8483,-1.8482,-1.848,0,0,-1.7842,-1.7945,-1.7974,-1.8019,-1.8102,-1.8177,-1.8282,-1.8377,-1.843,-1.85,-1.859,-1.872,-1.8691,-1.8745,-1.8753,-1.8826,-1.8965,-1.8785,-1.8787,-1.8819,-1.9143,-1.9168,-1.9195,-1.8954,-1.8958,-1.8962,-1.9137,0,-1.8006,-1.8192,-1.8206,-1.8374,-1.8464,-1.8447,-1.8539,-1.8601,-1.863,-1.8711,-1.8744,-1.8836,-1.879,-1.8823,-1.8894,-1.8933,-1.903,-1.892,-1.904,-1.9044,-1.9024,-1.9226,-1.9253,-1.9416,-1.916,-1.9164,-1.9167,0,-1.8223,-1.83,-1.8477,-1.8549,-1.8587,-1.867,-1.8758,-1.8835,-1.8905,-1.8921,-1.8983,-1.898,-1.909,-1.902,-1.9172,-1.9097,-1.9147,-1.9173,-1.9179,-1.9193,-1.9115,-1.9247,-1.9468,-1.9493,-1.9203,-1.92,-1.9197,0,-1.8349,-1.8496,-1.8621,-1.866,-1.8747,-1.8805,-1.8844,-1.891,-1.8966,-1.9044,-1.9081,-1.917,-1.9219,-1.9289,-1.9311,-1.9258,-1.9463,-1.9395,-1.9482,-1.9481,-1.9528,-1.9525,-1.9761,-1.9556,-1.9555,-1.9555,-1.9554,0,-1.8533,-1.8642,-1.8679,-1.8757,-1.8879,-1.8894,-1.9015,-1.9051,-1.911,-1.9194,-1.9185,-1.9265,-1.9288,-1.9373,-1.9391,-1.9515,-1.9537,-1.9555,-1.9559,-1.9557,-1.9555,-1.9592,-1.9582,-1.9561,-1.956,-1.9559,-1.9558,0,-1.8694,-1.8723,-1.8859,-1.893,-1.895,-1.9038,-1.9099,-1.9174,-1.9201,-1.9309,-1.9335,-1.9379,-1.9478,-1.9506,-1.9625,-1.9637,-1.9784,-1.9777,-1.9761,-1.9762,-1.9848,-1.984,-2.0117,-2.0156,-1.9923,-1.9925,-1.9927,0,-1.881,-1.8894,-1.8974,-1.903,-1.9072,-1.9162,-1.9219,-1.9237,-1.9298,-1.9385,-1.945,-1.9547,-1.9626,-1.9785,-1.9829,-1.992,-1.9916,-2.0007,-1.993,-1.9926,-1.992,-1.9916,-1.9925,-2.0022,-2.0025,-2.0026,-2.0028,0,-1.9014,-1.9025,-1.9108,-1.9197,-1.9265,-1.9336,-1.9404,-1.9451,-1.9479,-1.9547,-1.9648,-1.971,-1.9831,-1.9929,-2.0021,-2.0062,-2.0052,-2.0052,-2.0077,-2.0077,-2.0066,-2.0075,-1.9803,-2.0046,-2.0044,-2.0043,-2.0042,-2.0041,-1.9158,-1.9233,-1.9301,-1.9394,-1.9447,-1.9511,-1.9586,-1.9623,-1.9707,-1.9807,-1.9813,-1.9923,-1.9992,-2.0115,-2.0161,-2.0248,-2.0221,-2.0257,-2.0267,-2.0276,-2.0285,-2.005,-2.0264,-2.0264,-2.0264,-2.0263,-2.0263,0,-1.9364,-1.9407,-1.9492,-1.9588,-1.9662,-1.9643,-1.9718,-1.9781,-1.9878,-1.9943,-2.0021,-2.0138,-2.0232,-2.0283,-2.0378,-2.0438,-2.0435,-2.0462,-2.0459,-2.0469,-2.0302,-2.0271,-2.0463,-2.0463,-2.0463,-2.0463,-2.0463,-2.0463,-1.9479,-1.9605,-1.9623,-1.9775,-1.9818,-1.9925,-1.997,-2.0029,-2.0082,-2.0212,-2.0291,-2.0323,-2.0383,-2.0482,-2.0569,-2.0581,-2.0617,-2.0648,-2.0658,-2.0501,-2.0481,-2.0461,-2.0433,-2.0655,-2.0656,-2.0819,-2.082,-2.0821]},{"header":{"parameterUnit":"m.s-1","parameterCategory":1,"la1":30.2991,"la2":30.254,"lo1":-89.0895,"lo2":-89.0444,"dy":0.0017,"dx":0.0017,"nx":28,"ny":28,"refTime":"2023-08-14T21:00:00:Z","depth":0,"parameterNumber":3,"parameterNumberName":"V-component_of_WINDS"},"data":[0,0,0,0,0,0,0,0,0,0,0,0,0,0,0,0,0,0,0,0,0,0,0,0,0,0,0,0,0,0,0,0,0,0,0,0,0,0,0,0,0,0,0,0,0,0,0,0,0,0,0,0,0,0,0,0,0,0,-4.3558,-4.3558,0,-4.3555,-4.3555,-4.3555,-4.3478,-4.3476,-4.3474,-4.3472,-4.347,-4.3472,-4.3474,0,0,0,0,0,0,0,0,0,0,0,0,0,-4.3496,-4.3497,-4.3558,-4.3558,-4.3558,-4.3555,-4.3555,-4.3555,-4.3479,-4.3476,-4.3474,-4.3472,-4.347,-4.3472,-4.3474,0,0,0,0,0,0,0,0,0,0,0,0,0,-4.3511,-4.3498,-4.3558,-4.3519,-4.3516,-4.3555,-4.3555,-4.3555,-4.3479,-4.3476,-4.3473,-4.347,-4.3469,-4.3471,-4.3474,-4.355,0,0,-4.3482,-4.3483,0,0,0,0,0,0,0,0,-4.351,-4.3513,-4.3525,-4.3522,-4.3518,-4.3514,-4.3532,-4.3553,-4.348,-4.3493,-4.3472,-4.3469,-4.3487,-4.3488,-4.3494,-4.355,-4.355,-4.3483,-4.3484,-4.3485,-4.3486,0,0,0,0,0,0,0,-4.3509,-4.3513,-4.3557,-4.3525,-4.3521,-4.3502,-4.3501,-4.3536,-4.3507,-4.3492,-4.3486,-4.3487,-4.3485,-4.3492,-4.3494,-4.355,-4.3482,-4.3485,-4.3487,-4.3488,-4.3665,-4.3668,0,0,0,0,0,0,-4.3513,-4.3512,-4.3557,-4.3556,-4.3507,-4.3505,-4.3504,-4.3518,-4.3506,-4.3502,-4.3489,-4.3483,-4.3489,-4.3491,-4.3493,-4.3579,-4.3485,-4.3488,-4.3489,-4.3662,-4.3666,-4.3669,0,0,0,0,0,0,-4.3512,-4.3518,-4.3557,-4.3533,-4.3536,-4.3509,-4.3526,-4.352,-4.3527,-4.3504,-4.3499,-4.3502,-4.3486,-4.3489,-4.3536,-4.3578,-4.3489,-4.3491,-4.3658,-4.3663,-4.3668,-4.3754,0,0,0,0,0,0,-4.3511,-4.3518,-4.3547,-4.3534,-4.3538,-4.36,-4.3529,-4.3522,-4.3531,-4.3523,-4.3515,-4.351,-4.3484,-4.3532,-4.3539,-4.358,-4.3494,-4.3654,-4.3661,-4.3666,-4.3747,-4.3761,-4.3773,0,0,0,0,0,-4.3509,-4.3572,-4.3549,-4.3555,-4.3574,-4.3603,-4.3605,-4.3573,-4.3535,-4.3564,-4.3549,-4.3511,-4.3573,-4.3538,-4.3544,-4.3587,-4.3652,-4.3659,-4.3666,-4.3741,-4.3758,-4.3772,0,0,0,0,0,0,-4.3592,-4.357,-4.3544,-4.3605,-4.3606,-4.359,-4.3625,-4.3593,-4.3605,-4.3597,-4.3557,-4.3556,-4.3608,-4.3603,-4.3564,-4.3659,-4.3605,-4.3614,-4.3661,-4.3677,-4.3689,-4.3689,-4.3496,0,0,0,0,0,-4.3617,-4.3643,-4.3622,-4.3678,-4.368,-4.3652,-4.3664,-4.3639,-4.3639,-4.3639,-4.3628,-4.3629,-4.3649,-4.3662,-4.3679,-4.3746,-4.3742,-4.3779,-4.3792,-4.3802,-4.381,-4.3842,-4.3858,-4.3692,-4.3692,-4.3692,0,0,-4.367,-4.3661,-4.368,-4.3694,-4.3692,-4.3719,-4.3653,-4.3685,-4.3704,-4.3644,-4.3687,-4.3679,-4.3677,-4.3734,-4.3758,-4.373,-4.3855,-4.3811,-4.382,-4.3822,-4.3851,-4.3867,-4.3881,-4.3697,-4.3696,-4.3695,0,0,-4.3779,-4.3776,-4.382,-4.3819,-4.3817,-4.3798,-4.3809,-4.3797,-4.3789,-4.3831,-4.3786,-4.3808,-4.3843,-4.3843,-4.3848,-4.3955,-4.3919,-4.3962,-4.4028,-4.4061,-4.4074,-4.4085,-4.4121,-4.4135,-4.3969,-4.397,-4.397,0,-4.3845,-4.3883,-4.3848,-4.3881,-4.3888,-4.3835,-4.3879,-4.388,-4.3883,-4.3889,-4.3858,-4.39,-4.3895,-4.395,-4.3976,-4.3982,-4.3992,-4.3962,-4.4075,-4.4086,-4.4096,-4.413,-4.4144,-4.3975,-4.3974,-4.3974,-4.3973,0,-4.3963,-4.399,-4.4027,-4.403,-4.4041,-4.4081,-4.405,-4.4066,-4.404,-4.4024,-4.4067,-4.4059,-4.4072,-4.4084,-4.406,-4.4135,-4.4117,-4.4082,-4.4026,-4.4117,-4.4148,-4.4161,-4.3982,-4.398,-4.3979,-4.3977,0,0,-4.4125,-4.4107,-4.4121,-4.412,-4.4113,-4.4133,-4.4169,-4.4181,-4.4194,-4.4199,-4.4227,-4.4257,-4.4223,-4.4228,-4.4203,-4.4232,-4.4315,-4.4192,-4.4191,-4.4213,-4.4395,-4.4421,-4.4437,-4.4292,-4.4294,-4.4296,-4.4394,0,-4.4229,-4.4289,-4.4257,-4.4321,-4.4345,-4.4293,-4.4324,-4.4323,-4.4308,-4.4326,-4.431,-4.4331,-4.4286,-4.4288,-4.4315,-4.4299,-4.435,-4.4292,-4.4316,-4.4318,-4.4317,-4.4453,-4.4481,-4.4574,-4.4406,-4.4408,-4.441,0,-4.4359,-4.4366,-4.4432,-4.4418,-4.4427,-4.4455,-4.4462,-4.448,-4.4477,-4.4464,-4.447,-4.4437,-4.4471,-4.4417,-4.4462,-4.4423,-4.4431,-4.4425,-4.4428,-4.4428,-4.4368,-4.4455,-4.4604,-4.4617,-4.4429,-4.4428,-4.4426,0,-4.4468,-4.4495,-4.4537,-4.4539,-4.4524,-4.4544,-4.4539,-4.4533,-4.4541,-4.4548,-4.4553,-4.4564,-4.457,-4.4579,-4.4551,-4.4515,-4.4599,-4.4543,-4.4588,-4.4589,-4.4607,-4.4606,-4.4757,-4.4616,-4.4616,-4.4615,-4.4615,0,-4.4587,-4.4629,-4.4586,-4.4612,-4.4656,-4.4619,-4.4665,-4.4654,-4.4648,-4.4671,-4.4627,-4.4649,-4.4611,-4.4629,-4.4606,-4.4646,-4.4649,-4.4639,-4.4633,-4.4642,-4.4643,-4.4646,-4.4639,-4.4619,-4.4618,-4.4617,-4.4617,0,-4.4716,-4.4689,-4.4731,-4.4713,-4.4709,-4.4743,-4.4726,-4.4749,-4.4732,-4.476,-4.4765,-4.4738,-4.4756,-4.4728,-4.4745,-4.4729,-4.4783,-4.4768,-4.4784,-4.4779,-4.4825,-4.482,-4.4982,-4.5,-4.4848,-4.485,-4.4851,0,-4.4793,-4.4824,-4.4808,-4.4819,-4.4816,-4.4835,-4.4843,-4.4807,-4.4817,-4.4814,-4.4837,-4.4852,-4.4862,-4.4894,-4.4875,-4.4887,-4.487,-4.4926,-4.4872,-4.488,-4.4869,-4.4867,-4.4869,-4.4937,-4.4939,-4.494,-4.4942,0,-4.4932,-4.4916,-4.4929,-4.4937,-4.4947,-4.4952,-4.4954,-4.4966,-4.4928,-4.4941,-4.4959,-4.4967,-4.4982,-4.4997,-4.5003,-4.4997,-4.4963,-4.4959,-4.4969,-4.4979,-4.4986,-4.4981,-4.4813,-4.4955,-4.4954,-4.4953,-4.4952,-4.4951,-4.5036,-4.506,-4.5051,-4.5066,-4.5063,-4.5065,-4.5085,-4.5069,-4.5083,-4.5092,-4.507,-4.5093,-4.5087,-4.5092,-4.509,-4.5107,-4.5082,-4.5098,-4.5102,-4.5106,-4.5112,-4.4985,-4.5108,-4.5108,-4.5107,-4.5107,-4.5107,0,-4.517,-4.5162,-4.5176,-4.5179,-4.519,-4.5156,-4.5156,-4.5168,-4.5188,-4.5185,-4.5195,-4.5214,-4.5228,-4.521,-4.522,-4.5237,-4.5221,-4.5241,-4.5239,-4.5237,-4.5135,-4.5123,-4.5253,-4.5253,-4.5253,-4.5253,-4.5253,-4.5253,-4.5242,-4.5279,-4.5263,-4.5298,-4.5289,-4.531,-4.5312,-4.5313,-4.531,-4.5334,-4.5344,-4.5332,-4.5323,-4.5332,-4.5342,-4.5337,-4.5342,-4.5366,-4.5355,-4.5259,-4.5245,-4.5231,-4.522,-4.5368,-4.5368,-4.5456,-4.5457,-4.5457]}]]